Location: Newark
(35.2672°N, 80.7344°W)
Time: 00:22:16
(UTC+00:00)

Vanguard 2 Rocket - Pass Details

Date: 24 January 2020
Orbit: 553 x 3327 km, 32.9° (Epoch: 24 February)

Event Time Altitude Azimuth Distance (km) Brightness Sun altitude
Rises 12:39:29 0° 268° (W) 3,123 9.1 1.4°
Reaches altitude 10° 12:41:27 10° 266° (W) 2,378 8.5 1.7°
Maximum altitude 12:46:58 74° 182° (S) 1,145 7.6 2.7°
Drops below altitude 10° 12:56:45 10° 99° (E) 4,077 11.9 4.5°
Sets 13:01:07 0° 98° (E) 5,542 12.5 5.3°
